Regional Weather Roundup
Issued by NWS

Home | Current Version | Previous Version | Graphics & Text | Print | Product List | Glossary On
Versions: 1 2 3 4 5 6 7 8 9 10 11 12 13 14 15 16 17 18 19 20 21 22 23 24 25 26 27 28 29 30 31 32 33 34 35 36 37 38 39 40 41 42 43 44 45 46 47 48 49 50
000
ASUS45 KCYS 291610
RWRWY

WYOMING REGIONAL WEATHER ROUNDUP
NATIONAL WEATHER SERVICE CHEYENNE WY
1000 AM MDT MON SEP 29 2014

NOTE:  "FAIR" INDICATES FEW OR NO CLOUDS BELOW 12,000 FEET
WITH NO SIGNIFICANT WEATHER AND/OR OBSTRUCTIONS TO VISIBILITY.

WYZ001-291700-
YELLOWSTONE NATIONAL PARK

CITY           SKY/WX    TMP DP  RH WIND       PRES   REMARKS
LK YELLOWSTONE   N/A     43  36  76 CALM      30.06S
W YELLOWSTONE  NOT AVBL

$$
WYZ002>013-054>058-071-098>099-291700-
NORTHERN WYOMING

CITY           SKY/WX    TMP DP  RH WIND       PRES   REMARKS
JACKSON        CLOUDY    43  43 100 CALM      30.02S
CODY           CLOUDY    48  46  93 SE5       30.00S
GREYBULL       CLOUDY    51  48  89 CALM      30.00S
WORLAND        CLOUDY    51  46  83 CALM      30.00S
SHERIDAN       CLOUDY    52  48  86 CALM      29.98F
BUFFALO        CLOUDY    48  46  93 S6        30.01F
GILLETTE       CLOUDY    53  49  86 SE16      30.01F
HULETT         CLOUDY    50  46  87 E5        30.05
NEWCASTLE      CLOUDY    50  50 100 SE5       30.06

$$
WYZ014>020-022>026-101>103-291700-
CENTRAL WYOMING

CITY           SKY/WX    TMP DP  RH WIND       PRES   REMARKS
BIG PINEY      CLOUDY    45  41  86 S15       30.06S
PINEDALE       CLOUDY    43  41  93 SE8       30.07R
DUBOIS         CLOUDY    43  41  93 E7        30.03F
LANDER         MOSUNNY   50  47  89 E5        29.99F
RIVERTON       PTSUNNY   49  47  93 NE7       30.01F
CASPER         CLOUDY    48  45  89 E5        30.04F
DOUGLAS        CLOUDY    54  49  83 S5        30.05F

$$
WYZ021-027>030-104>119-291700-
SOUTHERN WYOMING

CITY           SKY/WX    TMP DP  RH WIND       PRES   REMARKS
EVANSTON       CLOUDY    43  39  86 S5        30.06F
KEMMERER       CLOUDY    43  41  93 S6        30.08S
FORT BRIDGER     N/A     47  43  87 W5        30.10R
ROCK SPRINGS   PTSUNNY   45  41  86 CALM      30.06R
DIXON          FAIR      50  42  73 CALM      30.09S
RAWLINS        MOSUNNY   47  43  86 E6        30.07S
SARATOGA         N/A     52  43  71 SE12      30.09S
LARAMIE        PTSUNNY   53  43  68 S3        30.09F
CHEYENNE       SUNNY     55  46  71 N7        30.08R
TORRINGTON     CLOUDY    55  53  93 NE8       30.01R
PINE BLUFFS    PTSUNNY   57  52  82 NE6       30.04F

$$


USA.gov is the U.S. government's official web portal to all federal, state and local government web resources and services.